Wind_Speed
23 25 26 25 26 29 29 31 32 30 27 24 22 21 20 19 18 17 17 18 17 17 18 17 16 16 15 14 14 13 14 14 13 13 14 15 14 14 13 13 14 13 12 12 11 10 10 11 10 10 9 9 9 9 9 9 8 8 8 8 8 8 7 7 7 7 6 5 5 4 4 5 4 5 7 7 6 6 5 5 7 7 7 8 9
22 24 25 26 27 28 27 28 31 30 26 23 22 21 20 20 20 19 17 17 17 18 18 17 17 17 16 15 15 15 15 15 14 14 14 15 15 14 13 13 14 13 13 12 12 11 11 11 11 10 10 10 10 10 10 10 9 9 8 8 8 8 8 8 7 7 7 5 5 4 3 4 5 5 7 7 6 7 5 5 5 6 7 8 8
18 19 21 23 26 25 24 25 28 29 25 22 21 21 20 20 20 20 18 16 17 18 18 16 17 18 17 17 17 16 16 16 15 15 16 16 16 14 13 12 13 13 13 12 12 11 11 11 11 11 10 10 10 11 11 10 9 9 9 8 8 8 8 8 7 7 7 6 5 5 4 4 5 6 7 7 6 6 5 5 5 5 7 8 7
16 16 18 20 20 21 21 22 24 25 24 22 22 21 19 18 19 20 18 16 16 17 17 17 17 17 17 18 18 17 16 16 15 15 16 17 16 15 14 14 13 13 13 12 12 12 11 11 11 11 10 10 10 11 11 11 10 10 9 8 8 8 7 7 8 8 7 7 6 6 6 6 6 7 6 6 6 5 5 5 6 7 8 8 7
20 16 15 16 16 17 19 20 21 22 23 22 22 22 20 18 19 20 19 17 16 16 17 17 17 17 17 17 17 17 17 17 16 16 16 16 16 15 14 14 15 14 14 13 13 12 12 12 12 11 11 10 11 10 10 10 10 10 9 8 7 7 7 7 8 8 8 8 7 7 8 8 7 6 6 6 6 4 5 6 6 9 10 9 7
22 17 14 15 16 17 18 18 19 21 23 22 21 21 21 19 19 19 19 18 17 16 16 16 17 17 18 17 17 17 17 17 17 17 16 15 16 15 15 15 15 15 14 14 14 13 13 12 12 12 12 12 11 11 10 10 10 10 10 9 8 8 8 8 8 7 8 8 7 8 8 7 7 6 6 7 6 4 5 5 5 8 11 11 9
24 22 22 22 20 21 23 22 20 20 20 21 20 19 20 19 19 18 18 18 17 16 16 16 16 17 18 18 18 17 17 17 18 18 17 16 16 16 16 15 15 15 15 14 14 14 13 13 13 13 13 13 12 12 11 11 11 11 11 10 9 9 9 9 8 7 8 8 8 8 7 6 6 6 6 8 7 5 5 5 5 6 9 11 10
26 27 29 28 25 26 27 24 22 21 19 19 19 18 18 18 18 18 17 18 17 17 16 15 16 16 16 17 18 17 18 18 18 18 18 17 17 16 16 16 15 15 15 15 15 15 14 14 14 14 13 14 14 13 12 11 11 11 11 10 10 10 10 9 8 8 8 9 9 8 7 6 6 6 6 7 6 5 5 5 6 6 8 10 9
26 27 29 30 31 29 24 23 25 25 23 22 22 20 18 17 18 18 18 18 17 17 16 15 15 15 15 16 17 17 17 17 18 18 18 17 17 16 15 15 16 15 15 15 15 15 15 15 15 15 15 15 15 15 14 13 13 13 12 11 11 11 10 10 9 8 9 9 9 8 8 8 7 6 6 6 5 6 5 5 7 7 8 9 8
25 26 27 30 31 29 26 27 29 28 26 26 25 23 20 18 18 18 19 19 18 17 17 16 15 15 14 15 16 16 16 18 19 18 17 17 17 16 16 16 17 16 16 16 16 16 16 15 16 17 18 17 17 16 16 16 16 15 14 13 13 12 11 10 10 10 10 9 10 9 9 9 8 7 7 6 5 5 6 6 7 8 8 9 7
21 23 26 27 25 22 23 25 26 25 25 25 25 24 22 20 18 19 19 19 19 20 20 18 17 16 15 15 15 15 16 19 20 19 19 19 19 18 17 17 18 18 17 17 17 16 16 16 16 17 18 18 18 17 18 18 17 17 16 15 14 14 14 13 14 13 10 10 10 9 10 10 9 8 7 7 5 5 6 6 7 7 8 9 8
19 21 23 22 19 20 22 24 24 23 22 23 24 24 24 22 21 21 20 19 20 21 20 19 19 18 16 16 16 15 15 18 20 19 20 21 20 20 18 16 16 17 17 17 17 17 17 16 16 16 16 17 17 16 15 17 18 17 18 17 16 17 16 16 15 13 10 9 10 10 9 9 8 8 7 6 5 5 6 7 7 7 8 9 9
21 22 23 21 19 21 25 26 26 23 21 22 23 23 22 22 22 22 21 21 23 23 21 19 20 20 19 18 18 16 15 18 21 21 21 21 21 21 19 16 16 16 16 16 17 17 17 17 17 16 15 16 19 18 18 19 18 17 18 19 18 17 16 15 14 14 11 10 10 10 9 9 7 7 7 7 6 6 7 8 8 8 9 10 9
20 22 23 21 19 21 22 23 23 22 20 21 23 23 21 20 20 20 19 21 23 22 21 20 21 23 22 21 20 18 16 18 22 23 23 23 22 21 20 19 19 18 17 17 17 17 17 17 17 17 15 17 21 22 22 21 19 16 18 20 18 17 16 15 14 14 13 12 12 10 9 10 8 6 7 8 7 8 9 8 8 8 9 10 7
15 19 20 19 18 20 21 20 20 21 21 20 21 24 22 22 23 21 18 19 20 20 21 21 21 22 20 17 16 14 12 14 17 21 23 23 20 20 21 21 20 18 18 19 19 19 18 17 17 18 19 21 23 23 22 21 19 18 19 18 16 15 15 15 13 12 12 12 12 10 10 11 9 7 7 8 7 7 8 8 7 7 8 8 5
8 13 18 19 19 20 21 19 17 18 18 15 15 18 18 18 19 18 14 14 15 17 20 19 18 19 18 17 16 14 13 15 15 17 21 22 20 19 20 20 20 18 18 19 20 21 21 19 19 21 23 24 23 22 22 20 18 18 17 17 15 14 15 17 15 13 13 13 12 11 10 10 9 7 7 8 7 6 6 6 6 6 6 6 5
10 1 7 12 15 16 16 15 15 16 15 12 11 11 11 10 10 10 9 9 10 12 14 13 11 12 14 16 17 17 16 17 15 14 17 19 18 17 17 17 18 18 18 19 21 23 24 23 24 23 24 24 23 21 20 19 19 19 18 18 17 13 13 16 16 14 14 13 12 11 9 9 8 7 7 7 7 6 6 6 5 5 5 5 5
18 13 9 6 9 12 12 12 13 14 12 10 7 6 6 5 5 7 9 10 10 10 10 10 9 9 12 14 15 14 11 11 12 11 13 14 12 12 13 13 14 15 16 17 20 22 24 25 26 24 24 25 25 23 21 21 23 23 20 19 18 14 13 15 16 15 14 12 11 10 8 7 6 6 6 6 5 5 5 5 3 3 4 4 4
19 17 16 14 12 12 11 10 10 9 8 7 5 3 2 3 4 5 7 8 8 6 7 10 11 12 13 15 16 13 9 10 13 13 14 16 13 10 10 10 11 13 13 14 17 19 22 24 25 25 26 26 26 26 24 24 25 24 21 20 18 15 15 15 15 15 14 11 9 7 7 6 4 4 5 4 3 2 1 1 2 3 4 2 3
18 17 17 17 15 15 13 12 10 8 8 7 5 3 2 3 4 5 6 6 5 4 4 7 9 9 9 9 10 9 8 10 13 13 15 16 15 12 10 9 11 13 13 14 15 16 18 18 19 22 23 24 25 26 25 26 26 26 25 25 22 20 18 15 14 14 13 11 9 8 7 6 5 6 6 6 4 4 3 2 2 2 2 2 3
20 20 20 20 19 19 18 17 16 15 13 11 9 7 4 3 3 5 6 7 7 6 5 6 8 8 8 7 7 6 6 8 9 10 12 13 14 14 13 11 12 13 14 14 15 16 17 17 17 19 21 22 23 23 23 25 27 27 28 29 28 25 22 18 16 15 14 13 13 12 10 9 9 8 8 7 6 5 4 4 4 5 5 4 4
21 22 22 22 22 22 21 21 21 21 19 17 14 11 7 4 3 3 4 5 6 7 6 7 7 6 5 5 5 5 5 6 6 7 8 9 10 11 11 11 13 14 15 15 16 18 19 19 20 22 24 25 24 23 23 25 24 25 27 29 30 27 21 17 18 18 17 17 17 16 14 13 12 11 10 10 9 9 8 8 8 8 8 7 6
20 20 21 21 20 19 19 20 21 20 19 18 17 14 12 9 8 6 5 3 2 3 4 6 6 6 6 6 5 4 2 1 1 2 3 4 4 5 6 7 9 11 13 13 15 17 19 22 23 23 23 23 23 24 25 24 22 25 26 26 28 27 21 19 19 20 20 20 19 17 16 15 15 14 13 13 13 12 12 11 11 10 9 10 9
18 18 18 17 17 17 17 18 18 17 17 16 16 15 14 13 12 11 9 5 3 3 4 5 7 8 8 8 8 8 6 6 5 4 4 4 4 4 5 5 6 7 8 11 12 15 18 21 23 24 24 23 22 22 24 24 25 27 27 24 25 24 22 21 21 20 21 20 18 17 16 16 17 17 16 16 15 13 13 12 11 10 10 9 9
16 17 16 16 15 16 16 17 16 17 17 17 16 15 15 15 14 13 12 10 10 10 10 10 11 11 12 13 13 11 10 9 9 8 7 7 6 6 6 7 8 8 8 9 11 13 15 17 20 22 23 24 23 23 24 25 26 27 27 27 26 25 24 24 23 21 22 21 19 18 18 18 19 19 17 16 15 14 13 12 11 9 8 7 7
16 16 17 17 17 17 17 17 17 17 17 18 17 16 16 16 16 15 15 14 14 14 15 15 14 14 14 14 13 12 11 10 9 8 7 5 5 5 5 6 7 8 8 9 10 12 13 15 16 17 16 17 18 20 21 23 23 23 24 25 26 25 25 25 24 23 23 22 21 20 20 20 19 17 15 15 14 13 12 11 9 7 6 5 5
15 16 16 17 17 17 17 17 17 18 18 18 19 19 18 18 18 17 16 14 13 13 14 14 14 13 12 11 10 10 9 9 9 8 8 7 6 6 6 6 7 8 8 9 10 10 11 12 12 11 9 8 8 10 10 12 13 15 17 18 20 21 21 22 24 25 24 24 24 24 22 19 17 16 15 14 13 11 10 8 7 6 5 4 4
14 14 14 15 15 16 16 16 17 18 18 18 19 20 20 19 19 19 18 15 13 13 14 14 13 12 11 10 9 10 11 11 11 11 12 12 10 9 8 7 7 8 9 9 9 9 9 9 7 5 4 4 1 2 3 3 5 9 11 11 14 18 19 20 23 25 26 26 26 25 21 18 16 14 13 12 11 10 9 8 8 7 6 5 5
13 12 12 13 13 14 14 15 16 17 17 17 18 18 18 18 18 18 17 16 14 14 14 13 13 12 11 11 11 10 11 11 11 11 12 12 12 11 9 8 8 8 9 9 8 7 6 5 4 5 5 4 4 4 5 6 8 10 10 11 14 18 19 21 24 26 26 25 25 24 20 16 13 12 11 11 11 9 9 9 9 8 7 6 6
10 11 10 10 10 11 11 12 13 13 13 14 16 16 16 16 16 16 16 15 15 14 14 13 12 12 11 11 10 10 9 9 10 10 10 11 11 10 9 8 8 8 8 8 7 5 3 2 4 5 5 5 6 6 8 10 12 13 13 15 17 20 22 24 25 25 24 23 23 22 20 16 13 12 11 11 10 9 9 9 9 8 6 6 6
8 8 9 9 9 9 8 8 9 10 10 11 12 13 14 14 14 14 14 14 14 14 14 13 13 12 12 12 11 11 10 10 11 11 11 11 11 10 10 9 8 8 7 6 4 2 2 3 4 5 5 5 6 6 8 11 14 15 16 17 19 21 23 23 23 23 23 22 21 19 16 14 13 11 10 10 9 8 8 7 7 7 6 6 6
8 7 7 7 8 8 7 6 6 6 6 7 8 9 10 10 10 11 11 12 12 12 13 13 13 13 13 14 14 13 12 12 12 12 12 12 12 12 11 9 8 8 6 3 4 4 4 4 5 5 5 6 6 7 9 10 12 13 15 17 19 20 21 20 20 19 18 17 15 13 12 12 11 10 9 8 7 7 6 6 6 6 6 6 6
7 6 6 6 6 6 6 6 5 4 4 4 4 4 4 4 5 6 7 9 10 11 12 13 13 14 15 15 15 14 13 13 12 11 12 12 13 13 11 10 8 6 3 5 8 7 6 6 6 6 7 8 8 9 10 11 12 12 13 15 17 18 19 19 18 16 14 13 12 11 11 11 10 9 9 7 6 6 6 6 6 6 6 7 8
6 6 6 7 6 5 5 4 4 3 3 2 1 1 1 1 2 3 3 5 6 8 10 12 12 13 14 14 14 14 13 13 13 13 12 12 12 10 9 9 10 9 9 10 10 9 8 9 9 9 10 11 12 13 13 14 15 15 15 16 17 18 19 18 18 17 15 13 12 11 11 10 9 8 7 6 6 6 6 6 6 6 6 7 8
6 5 6 7 6 5 5 4 4 4 3 2 1 1 1 2 3 2 2 2 3 5 7 8 9 10 11 12 13 13 13 13 14 14 13 12 10 7 7 10 13 14 14 13 12 10 11 13 14 14 14 15 16 17 17 18 19 19 19 18 19 19 18 18 18 17 16 14 13 12 11 10 8 7 7 6 6 6 6 5 5 6 6 7 8
6 5 5 6 6 6 6 6 4 5 5 4 3 2 2 3 3 3 3 3 3 4 5 6 6 7 8 9 11 12 12 13 13 13 13 12 10 8 9 12 13 13 13 13 12 11 12 15 18 19 20 19 19 18 18 19 20 20 19 19 18 18 17 17 17 17 16 15 14 12 10 9 7 6 6 6 6 6 5 5 5 5 6 7 9
4 3 4 5 6 7 8 7 5 5 5 5 4 3 2 2 3 4 4 4 4 4 5 5 4 3 5 6 8 9 10 10 11 11 12 12 12 13 14 14 13 12 12 13 12 12 12 13 16 19 20 21 20 19 19 19 19 19 19 18 17 17 17 17 16 16 15 14 12 10 9 8 7 6 6 6 6 5 5 5 6 6 6 7 9
6 4 4 5 6 7 7 6 5 5 5 5 4 3 3 2 3 4 5 5 5 5 4 4 3 1 2 3 5 7 7 7 8 10 12 13 14 15 15 16 16 15 14 13 13 12 12 12 14 16 17 18 19 19 19 18 18 17 17 16 16 16 16 15 15 14 13 12 11 9 8 7 7 7 6 5 4 4 5 6 6 7 7 8 8
7 7 6 6 5 5 5 4 4 4 5 4 4 3 3 3 3 3 4 5 5 4 4 3 2 2 2 2 3 4 5 6 7 9 10 12 13 13 13 14 16 16 16 16 16 15 14 14 14 15 15 16 17 18 18 18 18 17 17 17 16 16 15 13 12 11 10 10 9 7 6 6 6 6 6 5 4 5 7 7 7 7 8 8 8
6 6 7 7 5 4 4 4 3 4 4 4 4 4 4 4 3 3 3 4 4 4 3 3 2 3 3 2 2 3 3 5 6 7 8 9 11 12 12 12 12 13 14 15 16 16 15 15 14 13 13 13 13 14 15 16 16 16 15 15 15 14 13 11 10 9 8 7 6 6 6 5 5 6 5 5 5 6 7 7 6 6 6 7 6
7 6 6 7 7 5 4 4 4 3 3 4 4 3 4 3 3 3 3 3 3 3 3 3 3 4 4 3 3 3 4 5 6 6 7 8 9 10 10 10 10 10 11 12 13 13 13 13 13 12 12 11 10 10 10 11 11 12 12 12 12 12 11 10 9 8 7 7 6 7 7 7 6 6 6 5 5 6 5 5 5 5 4 4 5
8 7 6 6 7 6 6 5 4 4 3 4 4 4 3 3 3 3 3 4 4 4 4 4 4 5 5 4 4 4 5 6 6 6 7 7 7 8 9 9 10 10 10 10 11 11 11 11 11 11 11 10 9 9 8 8 9 9 10 10 11 11 11 10 9 8 8 8 8 8 9 8 7 7 6 5 4 4 3 3 4 4 4 4 4
6 7 7 7 7 8 8 7 6 5 4 4 4 4 4 4 4 4 5 5 6 6 5 6 6 6 6 6 5 5 5 6 6 6 6 6 7 7 7 7 8 8 9 9 9 9 9 9 9 9 9 8 8 7 7 7 8 8 9 9 10 10 9 9 9 9 9 9 9 9 9 8 6 5 4 3 3 3 3 3 3 3 3 4 4
6 7 7 7 8 8 9 8 8 7 6 5 5 5 5 5 5 6 6 7 7 7 7 7 7 8 8 7 6 6 6 6 6 6 6 6 6 6 6 6 6 6 6 6 7 7 6 5 6 7 7 7 7 6 6 7 7 7 8 8 8 8 9 9 10 10 10 9 8 7 6 5 5 4 3 2 2 3 3 3 3 3 3 3 3
8 8 8 8 8 8 9 9 9 8 7 7 7 7 7 7 7 7 7 8 9 8 8 7 8 8 8 7 6 6 6 6 6 6 6 5 5 5 5 5 4 4 4 4 4 4 3 2 3 4 5 6 6 7 7 7 7 8 8 8 8 9 10 10 10 9 8 7 6 5 4 4 4 3 2 2 2 2 3 3 3 3 3 3 3
7 8 8 8 8 8 9 9 9 9 9 9 9 9 9 8 8 7 8 8 9 9 9 9 9 9 8 7 7 6 6 6 6 6 6 5 5 5 5 4 4 3 3 2 2 1 1 2 3 3 4 6 7 7 7 8 8 8 8 9 10 11 10 9 8 8 7 6 5 4 4 3 3 2 2 2 2 2 3 3 3 3 3 3 4
7 8 8 8 8 9 9 9 9 9 10 10 11 12 11 10 9 9 9 10 11 10 10 11 11 11 10 9 8 7 7 6 6 6 6 6 5 5 5 4 3 3 2 2 2 1 2 4 5 5 6 7 8 7 7 7 7 8 9 10 10 10 8 7 7 8 8 6 5 3 3 2 2 2 2 2 2 2 3 3 3 3 3 4 4
7 7 8 8 8 9 9 9 9 10 10 11 11 12 12 11 10 9 9 10 11 11 11 13 13 12 11 11 10 9 8 8 7 7 7 6 6 5 4 4 3 2 1 1 1 1 2 4 6 7 8 8 8 7 7 6 7 8 9 9 8 7 6 6 6 8 8 7 5 4 3 3 3 3 3 3 3 3 2 3 3 3 4 5 5
6 7 7 8 8 9 9 8 8 9 9 8 9 9 10 10 10 9 9 9 10 11 12 12 11 11 11 12 12 11 10 9 9 8 7 7 6 5 4 3 3 2 1 1 2 1 3 5 7 8 9 9 8 7 6 7 7 8 8 7 5 5 6 6 6 7 8 7 5 4 4 3 3 3 2 2 3 3 2 3 3 4 5 5 6
4 4 5 6 6 6 6 6 6 6 6 6 6 7 9 11 11 12 12 12 12 13 14 13 12 12 13 14 13 13 12 11 10 9 8 8 7 6 5 4 2 1 0 2 2 3 4 6 9 10 10 9 7 7 7 7 7 6 5 4 4 5 6 7 7 7 7 6 5 4 4 3 2 3 3 3 3 3 3 4 5 5 5 6 6
4 4 4 4 4 4 4 4 4 5 5 5 5 6 7 9 10 12 14 14 13 15 16 16 16 16 16 15 14 14 13 12 11 10 9 8 7 5 4 3 2 1 0 1 2 3 5 9 11 11 9 8 7 7 6 6 5 4 3 2 3 4 6 7 7 7 7 6 5 4 4 4 4 4 4 4 4 4 4 5 6 6 5 5 6
Wind_Direction
205 209 210 211 215 220 221 222 222 221 223 227 229 231 234 236 237 238 241 246 247 248 249 249 249 246 239 235 238 242 247 249 248 250 254 257 261 261 259 261 264 263 262 260 260 262 265 267 268 268 266 259 254 252 249 248 249 253 257 256 256 253 244 242 255 272 282 290 296 303 326 337 338 350 353 352 355 2 1 351 355 2 2 0 359
207 210 210 211 215 219 220 220 221 220 220 223 225 227 231 235 238 237 236 241 245 247 248 247 247 247 242 240 243 245 250 254 252 249 252 257 260 259 256 258 261 262 263 262 262 264 266 266 267 268 267 262 258 256 255 253 254 257 259 259 260 254 245 242 248 267 280 286 293 296 312 329 331 340 345 342 348 358 1 355 354 355 353 355 355
212 212 212 214 216 217 217 217 219 219 217 219 221 222 226 231 235 235 231 233 240 245 245 241 243 248 245 245 248 249 252 255 253 250 254 258 259 256 253 254 255 258 260 261 262 264 265 264 264 266 267 265 263 260 258 257 258 262 262 263 265 256 248 248 249 263 279 287 294 298 309 324 327 330 334 337 343 352 356 351 349 350 350 353 354
212 214 216 220 220 218 217 217 218 217 216 218 220 221 223 225 229 231 228 229 234 241 242 238 240 246 244 245 249 250 251 252 251 250 253 256 257 256 255 253 253 255 258 261 261 261 261 261 260 261 264 268 267 262 258 257 258 262 263 262 264 256 251 256 257 260 272 280 286 295 307 314 319 326 330 334 336 341 350 352 351 355 355 353 349
210 211 215 222 225 226 225 221 219 217 218 219 220 221 222 223 225 227 228 229 231 234 237 235 235 239 238 238 243 247 249 250 249 249 250 252 254 253 252 252 252 254 258 260 261 260 259 259 260 260 261 264 266 263 259 258 259 259 258 258 257 256 257 263 263 257 258 266 277 290 300 305 313 324 330 334 331 327 342 354 357 358 359 356 348
207 204 212 222 224 229 234 231 225 221 220 221 222 221 221 222 223 224 226 229 229 228 229 229 231 235 236 235 237 243 246 247 248 249 248 249 252 251 250 251 252 254 256 257 258 257 257 258 259 259 259 262 264 264 262 261 259 257 258 259 258 261 263 262 264 260 255 261 272 281 290 298 307 314 323 330 327 318 330 342 347 355 0 358 353
206 208 222 225 219 224 233 236 236 232 225 224 224 223 222 222 222 223 224 225 227 226 224 225 230 233 237 237 237 241 246 246 247 250 249 247 249 250 249 249 249 252 253 254 254 255 255 257 258 257 258 259 261 263 262 261 259 258 260 261 261 264 264 259 256 256 257 263 270 273 277 285 293 298 308 320 321 315 327 336 335 346 355 355 350
210 213 223 223 220 223 226 228 230 232 230 227 225 224 224 224 221 221 222 222 225 226 224 225 229 233 235 238 241 243 247 248 248 250 251 249 247 247 248 249 249 251 252 252 253 255 255 254 255 255 255 257 258 260 260 259 260 261 261 262 265 266 264 258 250 249 256 263 268 270 268 269 273 278 289 304 308 307 321 331 328 331 341 343 342
214 216 218 220 223 223 223 227 228 227 227 229 231 230 225 223 222 220 221 224 226 227 227 227 229 232 235 240 246 247 246 246 248 250 252 251 249 247 246 248 249 249 250 252 253 255 255 254 253 252 255 259 260 260 259 259 260 263 262 263 267 266 261 256 248 246 251 258 261 261 257 259 261 262 273 286 295 302 311 315 318 325 331 333 336
219 219 218 223 226 224 225 233 233 230 228 230 233 233 228 224 222 220 221 224 225 227 230 232 233 235 236 242 249 249 246 250 254 255 255 254 254 252 250 251 253 251 251 253 254 255 254 253 252 253 257 260 261 261 261 262 263 265 265 264 263 261 260 260 258 252 249 254 259 258 255 261 265 263 270 280 282 291 299 305 313 322 329 332 333
224 222 222 226 228 224 225 233 235 232 229 227 229 230 230 226 222 220 221 222 224 229 233 235 237 237 237 241 245 245 248 258 263 263 261 260 258 255 254 254 255 255 252 252 254 255 255 254 254 256 258 259 260 263 266 269 269 269 269 266 262 260 257 257 259 258 254 255 259 259 257 260 263 262 269 277 277 285 295 301 310 318 327 331 329
233 229 228 230 229 224 223 231 238 236 230 229 229 226 226 227 225 223 222 221 224 229 231 233 236 238 238 240 245 245 250 261 268 269 268 267 262 257 253 250 251 252 250 251 253 254 255 257 256 256 257 256 258 263 272 277 278 277 273 267 264 265 260 253 251 253 255 256 259 259 254 253 257 260 265 271 272 279 289 295 303 314 320 322 324
239 237 236 235 233 229 225 225 230 231 228 231 233 227 220 223 227 227 226 226 228 229 229 230 235 238 237 240 244 246 250 260 270 273 273 272 268 260 253 251 252 252 250 251 254 255 256 257 257 259 259 257 259 262 264 267 272 277 274 267 261 260 259 255 253 253 253 255 257 257 253 252 254 255 259 264 269 278 287 293 301 310 313 315 324
239 238 237 233 229 230 228 221 219 222 225 230 237 235 222 214 219 225 229 231 230 229 228 231 235 239 240 243 247 251 255 263 271 275 274 272 270 263 256 253 253 252 251 252 254 256 255 255 258 259 257 257 263 264 261 259 261 266 269 266 256 250 253 257 257 253 250 249 251 253 256 261 257 248 255 265 273 284 288 291 298 303 304 308 318
248 239 232 226 221 220 218 210 206 213 221 226 234 237 230 220 220 226 233 237 236 236 236 234 237 241 242 243 247 250 254 261 272 280 276 270 265 261 256 251 248 247 249 252 254 256 256 255 257 258 259 263 267 268 265 262 260 261 262 258 247 240 247 250 245 244 245 246 248 248 252 258 254 247 262 274 278 281 282 285 292 293 296 300 301
282 243 225 218 213 208 206 199 193 198 205 208 217 228 232 228 224 226 233 241 249 260 259 250 243 245 244 241 241 244 247 254 272 290 283 268 258 256 254 251 250 249 249 251 254 257 258 257 257 259 264 268 271 271 268 263 261 263 261 252 241 236 242 242 239 241 247 249 249 244 242 248 248 252 266 273 272 273 275 278 280 281 290 296 291
20 337 209 204 192 182 183 182 174 174 181 190 206 225 234 234 232 235 237 235 242 261 273 273 266 262 260 254 248 248 251 256 269 290 286 267 253 249 250 250 251 252 252 253 256 258 259 259 260 261 265 267 268 269 265 256 253 256 255 249 241 230 228 236 239 241 244 245 244 241 242 247 250 256 263 264 266 269 273 275 275 285 298 303 305
41 47 58 95 130 134 143 149 146 148 154 161 175 201 224 239 255 258 251 242 234 237 257 276 282 282 281 276 265 255 252 255 259 270 281 278 264 253 252 253 254 255 256 257 259 261 262 262 262 261 262 264 265 264 260 253 248 248 247 244 240 228 220 226 230 231 232 234 235 235 238 239 239 243 243 249 262 268 280 292 303 317 311 313 318
45 47 54 64 80 93 105 116 122 129 129 123 127 149 213 264 276 264 249 247 249 251 264 272 273 273 274 275 274 273 269 263 259 258 268 278 280 271 265 263 261 261 261 261 262 264 266 267 266 263 262 263 264 264 262 257 250 245 239 234 232 230 225 220 221 223 221 216 214 211 212 211 206 208 208 208 223 219 221 3 16 345 319 321 331
54 54 58 61 63 67 77 87 91 97 97 91 85 71 25 311 296 282 261 252 255 256 256 267 273 273 267 266 275 281 272 263 264 264 266 272 277 276 272 269 267 268 268 266 267 268 268 268 268 265 262 262 263 264 263 258 250 243 235 228 224 227 229 227 229 226 212 197 190 183 176 171 158 154 162 161 157 156 136 89 66 45 33 51 44
65 64 64 63 61 61 63 68 70 70 69 69 67 59 41 351 312 292 277 269 265 251 235 247 261 264 266 272 275 271 260 257 262 266 269 273 277 278 276 272 270 270 269 268 268 268 268 267 268 269 268 266 265 265 264 260 251 241 234 228 225 226 230 230 229 221 205 190 183 172 160 155 149 143 145 147 141 131 116 106 107 109 102 90 76
70 69 68 65 63 62 60 60 61 60 58 57 57 54 46 28 356 310 289 285 278 265 249 243 244 239 242 247 237 230 241 253 258 266 274 279 280 278 275 270 268 269 270 270 269 269 270 270 271 274 275 274 271 266 265 265 255 240 234 233 230 230 230 225 216 208 198 188 178 169 165 163 158 149 141 135 129 120 111 107 107 110 107 99 92
69 68 66 63 60 59 58 56 57 56 55 54 53 52 50 43 34 23 13 356 299 263 229 209 197 177 164 163 160 156 157 175 257 295 304 306 302 296 287 280 277 276 276 277 275 274 274 273 271 272 272 273 271 264 262 265 255 238 233 231 229 230 229 220 209 199 191 183 174 167 166 162 156 150 140 131 125 120 113 108 104 100 97 94 90
64 62 61 59 56 53 51 51 51 51 49 47 46 48 49 47 43 41 40 44 78 107 126 143 139 127 116 106 100 97 94 91 86 75 61 45 31 18 359 342 332 319 306 300 296 291 288 285 281 276 270 267 267 263 260 259 249 238 230 223 219 220 218 210 201 192 184 175 164 155 150 148 146 141 134 128 126 122 114 108 103 96 92 91 87
59 59 59 58 55 52 50 48 47 46 46 46 46 48 53 57 58 60 62 66 77 85 86 90 93 92 88 84 83 82 81 79 77 73 65 54 44 32 14 360 356 348 330 318 313 306 304 302 299 293 282 272 266 262 257 250 242 236 231 222 213 207 202 195 190 183 173 163 151 140 137 138 139 135 131 130 127 121 112 106 100 93 88 83 76
60 62 62 61 59 56 52 49 47 46 46 48 49 52 58 61 63 67 70 71 74 79 81 82 82 80 78 79 79 75 72 69 65 58 50 41 28 13 353 340 342 337 324 319 318 313 311 310 308 308 304 288 270 259 250 241 234 228 221 212 201 195 193 188 180 172 162 152 141 132 129 131 132 131 133 133 125 118 112 107 102 95 86 76 67
64 66 64 61 59 58 57 55 53 53 52 52 54 57 60 61 61 61 63 64 67 73 78 82 83 79 73 71 68 62 55 49 41 30 19 11 7 358 343 331 329 329 327 324 319 313 314 316 310 308 315 310 282 255 241 235 228 217 209 200 192 188 187 182 173 166 156 145 137 129 125 128 131 132 134 130 121 112 107 104 100 88 74 61 54
64 65 63 60 60 61 61 60 60 59 58 56 56 58 60 62 62 62 61 61 61 64 67 68 67 64 59 51 41 33 28 22 16 8 2 358 356 353 347 339 335 336 337 333 321 312 316 326 328 326 332 341 321 204 180 164 180 189 191 186 177 173 172 166 159 152 145 138 133 128 127 130 133 132 127 118 109 104 101 97 88 71 54 39 29
64 63 62 61 61 61 61 61 63 65 64 63 62 62 62 63 65 65 63 61 58 56 56 54 50 46 41 35 29 24 19 15 10 5 1 355 349 345 343 342 343 346 347 341 331 320 313 326 0 25 29 36 68 104 119 127 144 159 160 149 145 149 151 147 141 137 135 133 130 130 133 132 128 125 121 112 107 104 97 87 74 60 47 35 25
62 61 61 59 59 59 59 58 60 64 69 71 72 72 69 66 68 69 66 61 56 51 49 48 46 42 38 35 33 28 21 17 15 13 10 3 356 351 351 352 353 356 357 352 343 330 312 336 14 33 45 57 70 84 104 121 131 136 134 132 134 138 139 137 135 133 133 133 133 137 139 134 124 121 118 112 107 101 90 78 67 56 42 26 15
57 57 57 56 55 55 56 55 54 59 69 75 80 84 83 77 72 70 66 61 56 52 49 49 49 49 48 47 45 40 35 33 29 21 14 11 12 13 9 4 4 6 4 1 2 356 7 46 51 51 58 70 82 94 106 115 118 119 118 118 123 128 131 132 133 135 135 134 136 137 134 127 121 118 115 112 108 99 86 73 63 50 32 16 5
52 50 49 48 47 46 49 50 49 55 66 72 77 85 90 88 82 75 69 65 62 60 59 59 58 59 61 61 59 55 50 44 37 28 18 14 15 17 13 7 7 7 5 34 71 62 50 65 77 76 77 85 93 97 100 101 103 108 113 114 116 120 123 125 128 129 128 128 127 123 118 117 116 114 112 110 106 97 84 69 54 38 20 6 356
42 42 39 37 34 33 37 41 42 47 57 63 68 77 81 88 93 87 78 72 69 68 70 70 67 66 65 64 61 56 50 42 34 27 19 15 14 15 19 25 26 21 36 84 86 75 69 78 84 83 86 90 88 84 87 90 91 93 99 106 112 116 119 123 125 119 110 107 106 105 105 107 108 108 106 102 97 89 76 60 45 30 11 356 346
32 29 23 21 22 22 21 21 21 26 38 43 44 36 31 102 124 113 93 78 71 70 71 73 73 70 65 60 55 51 46 42 35 27 21 19 14 12 29 54 61 63 74 82 81 81 85 86 80 75 79 88 95 98 100 103 103 98 94 97 105 112 117 123 123 115 105 99 93 89 89 92 94 97 97 91 84 75 61 47 36 23 5 350 339
19 11 5 9 12 11 5 355 345 339 341 342 323 290 263 218 188 167 138 108 92 82 77 74 71 65 58 54 51 47 42 38 34 30 28 28 21 17 45 62 58 53 54 57 58 69 86 93 94 93 92 96 102 107 109 109 110 109 106 104 106 109 111 115 117 114 112 109 101 92 87 84 82 82 83 76 68 60 50 39 28 15 359 345 335
9 0 356 358 360 358 354 346 335 328 326 320 305 284 262 232 210 193 173 149 134 122 109 98 83 63 50 46 45 42 37 33 32 33 35 38 40 50 61 58 48 43 44 44 43 52 74 91 102 108 110 108 106 106 107 109 110 112 113 113 113 114 114 115 116 117 117 115 109 101 92 83 76 75 73 67 60 52 39 23 12 0 346 335 328
345 348 351 347 345 348 350 346 335 328 329 324 310 287 268 243 220 205 194 178 163 152 141 130 115 77 54 50 45 38 35 34 37 44 51 55 58 66 71 68 60 53 50 48 48 50 55 70 89 104 112 116 117 117 116 115 115 115 117 119 120 121 121 122 122 122 119 116 112 105 93 79 67 60 57 54 47 36 19 2 350 339 327 320 316
319 315 325 337 339 342 344 343 334 327 329 328 316 297 275 254 232 214 204 194 182 173 166 161 155 125 80 65 44 33 33 41 49 56 62 63 63 66 72 74 73 68 61 59 63 64 61 65 79 92 101 109 117 121 123 123 123 124 124 125 125 125 126 126 126 125 122 118 112 105 91 76 63 50 41 34 25 11 356 344 336 330 322 316 313
318 309 310 318 325 329 329 327 323 321 321 320 314 303 288 272 254 229 211 202 194 188 182 176 168 149 127 93 41 28 38 56 62 62 64 67 68 68 70 72 74 74 72 70 71 73 73 76 85 93 97 102 110 116 120 123 126 128 129 130 130 128 127 125 121 118 114 109 104 96 84 72 56 37 24 15 2 349 339 333 330 326 320 317 316
307 300 301 302 298 296 301 302 300 303 303 302 301 296 287 280 273 252 228 212 202 193 183 171 162 162 155 129 64 47 64 76 75 73 73 74 74 74 74 72 71 71 72 72 72 72 73 74 76 80 85 91 101 109 114 117 120 122 124 125 124 121 118 115 111 105 97 90 82 68 53 43 33 21 13 1 343 335 331 327 322 318 314 312 312
308 296 290 288 284 278 275 273 273 274 273 273 276 278 276 277 273 255 233 219 207 193 172 153 153 163 159 133 95 93 101 98 91 87 84 81 79 78 77 77 75 73 71 71 70 70 71 72 72 72 72 75 81 89 98 104 109 111 112 112 110 106 101 96 91 83 71 59 46 31 21 17 12 3 356 348 337 332 328 320 313 312 309 304 305
312 304 294 283 275 267 262 260 259 255 251 251 252 252 254 258 249 229 215 208 201 189 167 151 154 161 150 124 105 111 116 111 108 104 98 92 90 87 83 81 81 80 77 74 73 71 71 73 75 75 74 73 74 77 83 89 94 98 99 97 94 90 83 73 62 51 38 25 14 6 359 356 354 353 352 350 341 332 326 318 314 314 306 298 301
299 297 294 287 276 266 261 259 255 248 241 239 240 238 235 231 221 209 202 198 196 190 176 161 158 159 147 128 120 123 122 117 115 112 107 101 97 93 88 85 84 82 79 76 74 71 71 74 77 77 75 75 76 78 82 86 89 90 90 87 82 76 67 53 34 19 8 359 353 349 347 349 355 4 7 1 346 333 324 315 309 307 303 300 301
284 281 281 283 279 273 267 261 256 252 244 236 231 228 224 218 212 205 199 194 191 190 184 172 164 159 151 141 138 138 132 126 123 119 114 110 105 98 92 90 88 86 82 77 71 66 65 74 83 84 84 86 89 90 93 95 93 89 85 78 69 56 42 26 10 360 354 351 350 352 355 1 14 29 27 4 341 327 311 301 299 304 310 312 310
281 279 280 279 275 271 266 260 257 254 247 238 230 225 221 218 215 209 202 195 190 188 183 173 164 160 155 152 151 149 141 134 131 127 120 116 109 103 99 97 92 85 81 84 82 72 68 94 110 106 106 111 112 110 108 103 95 86 77 65 51 37 23 12 4 1 1 3 9 16 19 21 24 25 11 344 324 309 296 293 295 303 316 320 317
277 278 279 278 275 271 266 262 258 255 250 246 242 236 229 223 217 210 202 195 190 184 178 172 167 165 162 160 158 154 148 142 137 132 128 122 116 112 108 104 100 91 85 98 110 107 191 188 174 159 151 145 136 125 115 104 89 74 60 48 39 30 23 18 17 17 15 17 25 29 28 24 15 359 343 335 319 301 296 297 294 298 315 320 316
274 272 271 272 274 272 269 265 261 257 253 252 250 247 241 230 217 207 203 199 194 187 178 174 173 171 168 167 164 158 153 148 142 139 137 132 126 121 116 110 107 99 91 98 117 156 210 206 199 189 177 164 151 136 123 105 79 59 48 40 32 27 25 26 25 20 15 14 15 18 19 14 0 346 345 344 331 311 303 303 297 295 306 316 319
276 273 271 271 271 270 268 266 263 260 257 252 249 249 248 236 217 203 197 198 197 192 184 180 178 174 170 169 169 168 164 159 151 145 143 139 133 129 125 119 112 102 81 62 79 179 201 198 191 183 175 165 150 134 118 95 68 53 45 38 30 28 31 32 28 23 22 19 15 13 14 10 359 354 350 342 331 321 311 308 306 304 308 313 321
281 276 275 274 272 271 271 270 269 267 263 254 245 244 241 227 210 199 195 196 197 194 187 182 179 175 171 171 175 176 174 168 159 152 149 147 143 140 137 130 121 109 59 329 296 247 205 188 180 175 169 158 142 125 102 80 65 56 50 43 39 41 41 35 29 28 29 28 24 20 21 18 8 2 355 340 330 326 323 320 316 313 312 315 320
309 296 290 286 284 283 283 282 280 277 269 255 242 236 228 217 208 205 205 204 199 192 186 183 182 181 178 177 178 178 174 170 167 163 158 155 151 148 146 144 134 119 333 294 278 246 204 183 176 171 161 147 130 109 89 75 66 62 62 66 63 50 38 32 30 29 30 32 36 30 25 23 17 3 352 342 335 333 331 327 323 317 314 315 318
355 348 339 331 326 323 316 307 303 298 287 271 256 241 228 216 207 206 208 209 206 199 194 192 190 189 185 183 183 183 182 180 177 172 167 163 157 151 149 151 149 142 234 257 243 212 185 177 174 167 153 135 118 101 89 85 81 82 92 89 60 34 22 21 23 20 19 26 36 31 18 17 16 5 351 337 328 327 326 324 323 320 315 312 314
Height
819 821 823 825 827 828 830 831 833 834 836 838 839 840 842 843 845 846 847 848 849 850 851 852 854 855 856 857 857 858 859 859 860 861 861 862 862 862 862 863 863 863 863 863 863 863 863 863 863 863 863 863 863 863 862 862 862 861 861 861 860 860 860 860 859 857 857 857 856 856 855 855 854 853 853 852 851 850 849 849 847 847 846 845 844
817 819 820 822 824 826 828 829 830 832 834 836 837 838 840 841 842 844 845 846 847 848 850 851 852 853 854 855 855 856 857 857 858 859 859 860 860 860 861 861 861 861 861 861 862 862 862 862 862 862 862 862 862 861 861 860 860 860 860 859 859 859 858 858 858 857 856 856 855 855 854 854 853 853 852 851 850 849 848 848 847 846 845 844 843
817 818 820 821 822 824 826 827 828 830 832 834 835 836 838 839 840 842 843 845 845 846 848 849 850 850 851 852 853 854 855 855 856 857 857 858 858 858 859 859 859 859 859 860 860 860 860 860 860 860 860 860 860 860 860 859 859 859 859 858 858 857 857 857 857 856 855 855 855 854 853 853 852 852 851 850 849 848 847 847 846 845 844 843 842
815 817 819 821 822 824 825 826 827 828 829 831 832 834 836 837 838 840 841 843 843 844 845 846 847 848 849 850 851 851 852 853 854 854 855 856 856 856 857 857 857 857 858 858 858 858 859 858 859 859 859 859 858 858 858 858 858 858 857 857 857 856 856 856 856 856 855 854 854 853 852 852 851 851 850 849 848 847 846 846 845 844 843 842 841
812 815 818 820 822 824 824 825 826 826 827 829 830 832 833 835 836 837 839 840 841 842 843 844 845 845 846 847 848 849 850 850 851 852 853 853 854 854 855 855 855 855 856 856 856 856 857 857 857 857 857 857 856 856 856 856 856 856 856 856 855 855 855 855 854 854 854 854 853 852 852 851 850 850 849 848 847 846 845 845 844 843 842 841 840
810 813 817 818 820 822 824 825 825 824 825 827 828 829 831 832 834 835 836 838 839 840 841 841 842 843 844 845 845 846 847 847 848 849 850 851 851 852 852 853 853 853 854 854 854 854 854 854 855 855 855 855 855 855 855 855 855 854 854 854 854 854 853 853 853 852 852 852 852 851 851 850 849 849 848 847 846 846 845 844 843 842 840 839 839
807 809 812 814 816 817 820 822 824 824 824 824 826 827 828 830 831 832 834 835 836 838 838 839 840 841 841 842 843 844 844 844 845 846 847 848 849 849 850 850 851 851 852 852 852 852 852 852 852 852 853 853 853 853 853 853 853 853 853 853 852 852 852 851 851 851 851 850 850 850 849 849 848 848 847 846 845 845 844 843 842 841 840 838 837
804 805 807 808 810 812 814 817 819 821 822 822 824 825 826 828 829 830 832 833 834 835 836 837 838 838 839 840 841 841 841 842 842 843 844 845 846 847 847 848 849 849 849 850 850 850 850 850 850 850 850 850 851 851 851 851 851 851 851 851 851 851 850 850 849 849 849 848 848 848 847 847 847 847 846 845 844 844 843 842 841 840 839 838 837
802 803 804 804 805 808 812 815 816 817 818 819 821 822 824 825 827 828 829 831 832 833 834 835 836 836 837 838 838 839 839 840 840 840 841 842 843 844 845 845 846 847 847 847 848 848 848 848 848 848 848 848 848 848 849 849 849 849 849 849 849 849 848 848 848 847 847 846 846 846 846 845 845 845 844 844 843 843 842 841 840 839 839 838 836
801 802 802 802 803 806 809 812 813 814 814 815 817 819 821 823 824 825 826 828 830 831 832 833 834 834 835 835 836 837 837 837 837 838 839 840 841 841 842 843 843 844 845 845 845 845 845 845 845 845 845 845 846 846 846 847 847 847 847 847 847 847 847 847 847 846 845 844 844 844 843 843 842 843 843 842 842 841 841 840 839 839 838 837 836
799 800 800 801 803 805 808 811 812 813 812 812 813 815 817 820 821 822 823 825 827 828 830 831 831 832 833 833 834 834 834 834 835 836 837 838 838 839 839 840 840 841 842 842 843 843 843 843 843 842 843 843 843 844 844 844 845 844 844 844 844 844 844 845 846 845 843 842 842 841 841 841 841 841 841 841 841 840 839 839 838 838 837 836 835
798 798 799 800 802 803 806 809 810 811 812 813 812 811 813 816 818 819 821 822 824 825 827 828 828 829 830 830 831 831 832 832 833 834 835 835 836 836 837 837 838 838 839 839 840 840 840 840 840 840 840 840 841 842 842 843 843 843 842 842 842 842 842 842 843 842 841 840 840 840 839 839 839 840 840 839 839 839 838 838 837 837 836 835 834
796 796 797 799 799 800 802 804 806 808 811 813 814 811 811 812 815 817 819 820 821 823 824 825 826 827 827 827 828 829 829 830 830 831 832 833 834 834 835 835 835 836 836 836 837 837 837 838 838 838 838 837 837 839 840 840 840 840 840 839 839 839 839 839 839 839 839 838 838 838 838 838 838 838 838 838 838 838 837 837 836 836 835 834 833
795 795 795 796 797 799 801 802 804 805 807 810 813 813 811 810 812 815 818 819 819 820 822 823 824 824 825 825 825 826 827 828 828 829 829 830 831 832 832 833 833 833 833 833 834 834 834 835 835 835 835 835 834 835 836 836 836 836 836 836 836 836 836 836 836 836 836 836 836 836 836 837 837 837 837 837 837 837 837 836 835 835 834 833 832
793 794 794 795 795 796 798 800 802 803 804 806 810 812 812 809 809 812 816 817 819 820 820 821 821 822 823 823 824 824 825 825 826 827 827 828 828 829 829 829 830 830 829 829 830 831 831 832 832 832 832 832 832 833 834 834 834 834 834 834 834 833 834 834 834 834 834 834 834 835 835 835 835 835 836 836 836 836 835 835 834 834 833 832 832
791 791 791 791 792 793 795 797 798 801 803 805 808 811 812 810 810 811 813 816 819 821 821 821 820 821 821 821 822 822 822 822 822 824 826 826 826 826 826 826 827 827 827 827 827 827 828 828 829 829 829 829 829 830 831 832 833 833 833 833 832 831 831 831 832 832 832 832 832 832 832 833 833 834 834 834 835 834 834 834 833 833 833 832 831
792 791 791 790 790 791 793 795 796 799 801 804 807 810 810 810 810 811 813 815 816 819 822 822 820 820 821 821 820 820 819 819 819 821 824 825 823 823 824 824 824 824 824 824 824 824 824 824 825 825 825 825 826 827 828 829 829 829 830 831 831 830 829 829 829 830 830 830 830 831 831 831 831 832 832 833 833 833 833 833 833 832 832 831 830
797 796 795 794 794 793 795 796 797 798 800 802 806 808 809 810 811 812 815 815 814 815 819 820 819 819 821 822 821 819 817 816 817 819 822 824 822 821 821 822 822 822 822 822 821 821 821 821 821 822 822 822 823 824 825 825 824 824 826 828 829 828 827 827 827 827 828 828 829 829 829 830 830 830 830 831 832 832 833 833 832 832 832 832 831
802 801 800 799 798 797 798 798 798 798 799 801 804 806 808 809 811 813 814 814 813 812 814 816 816 817 819 821 821 820 817 815 815 816 819 821 821 820 820 820 820 820 820 819 819 819 818 818 818 818 819 819 820 821 821 822 822 822 823 824 825 825 825 825 826 826 826 827 828 828 828 829 829 829 829 830 831 832 832 832 832 832 832 832 832
806 804 803 802 801 801 801 801 800 800 800 801 802 804 806 807 810 812 813 813 811 810 812 814 815 816 816 817 819 819 817 815 814 814 816 818 818 818 818 819 819 818 818 817 817 817 816 816 816 815 816 816 817 817 818 818 818 818 819 819 820 820 821 823 826 826 826 826 827 827 827 829 829 829 829 829 830 831 831 831 832 832 833 833 833
809 808 807 806 806 806 805 804 803 802 801 802 802 803 805 807 809 811 812 812 810 809 811 814 815 815 815 815 816 817 816 814 813 814 815 816 816 817 817 817 818 817 816 816 815 815 814 814 814 813 813 814 814 815 815 815 815 814 813 814 815 816 817 819 822 826 826 825 825 826 826 827 828 829 829 829 830 830 830 830 831 832 833 834 834
812 811 810 809 809 809 808 807 805 804 804 804 804 806 808 810 811 811 811 810 809 809 810 813 814 814 814 814 815 815 814 814 813 813 814 814 815 815 816 816 815 815 814 813 813 812 812 811 811 810 810 811 812 812 812 812 812 812 811 812 813 814 815 815 818 821 823 822 822 823 823 825 826 828 828 829 829 830 830 830 831 831 832 833 834
814 813 812 811 811 811 810 808 807 807 808 808 808 810 811 811 811 811 810 810 809 810 811 813 813 814 814 814 814 814 814 813 813 813 813 814 814 814 814 814 813 812 812 811 810 810 809 808 807 807 807 807 808 808 808 809 810 810 810 811 813 814 815 815 815 817 819 820 820 820 821 823 825 827 828 829 829 830 830 831 831 832 832 834 834
815 814 813 813 813 812 811 810 809 809 810 810 810 811 811 811 811 811 811 811 811 812 813 814 814 814 814 814 814 814 814 813 813 813 813 813 813 813 813 813 812 811 810 809 808 807 806 805 804 803 804 803 803 804 804 805 806 806 807 809 810 811 812 813 814 816 818 820 819 819 821 823 825 826 828 828 829 830 831 831 832 833 834 835 835
816 816 815 815 814 813 813 812 811 811 811 811 811 811 812 813 813 813 813 813 813 813 814 814 814 814 814 814 813 814 814 814 814 814 814 814 814 813 813 812 811 811 810 808 807 806 804 803 801 800 799 799 799 800 800 801 802 804 805 805 805 806 808 810 812 815 817 818 818 819 820 822 824 826 827 829 830 831 831 832 833 834 835 836 836
818 818 817 816 816 815 815 814 814 813 813 812 813 813 813 814 814 814 814 814 815 815 815 815 815 815 814 814 814 814 815 815 815 815 815 815 814 813 813 812 811 810 809 807 806 804 803 801 799 798 797 796 796 797 797 798 799 801 802 802 801 802 805 807 810 814 816 816 817 818 820 822 825 827 828 830 831 832 832 833 835 836 836 837 837
820 819 819 818 818 817 817 817 816 816 815 815 814 814 814 815 815 815 815 816 816 817 817 817 817 816 816 815 815 815 815 815 815 815 815 815 814 813 812 811 810 809 808 806 805 803 802 801 799 797 797 796 796 796 796 797 798 800 802 803 802 802 804 807 809 812 814 815 816 817 820 824 827 828 830 832 832 833 834 834 835 837 837 837 838
822 821 821 821 820 820 820 819 819 818 818 817 817 816 816 816 816 816 817 817 818 818 819 818 818 818 817 817 816 816 815 815 815 815 815 814 813 812 811 810 809 808 807 806 804 803 802 801 799 798 798 797 797 797 797 798 799 800 802 803 803 802 805 808 810 811 813 815 816 818 821 825 828 830 831 832 833 834 834 835 836 837 837 837 837
823 823 823 822 822 822 822 822 821 821 821 820 820 819 819 819 819 818 819 819 819 819 819 819 819 819 818 817 817 816 816 816 816 815 815 814 813 812 810 809 808 807 806 805 804 803 803 803 801 800 799 799 799 799 799 799 800 800 801 803 803 804 807 810 811 812 815 816 817 819 823 827 829 830 832 833 834 834 835 835 835 836 837 837 837
825 825 824 824 824 824 824 824 824 823 823 823 823 822 822 821 821 821 821 821 821 820 820 820 819 819 818 818 817 817 817 817 817 816 815 814 813 811 810 809 807 806 806 805 805 805 804 804 803 802 801 801 801 801 801 801 802 803 803 804 804 806 809 811 813 814 816 818 819 822 825 827 829 831 832 833 834 835 835 835 836 837 837 838 838
827 826 826 827 826 826 826 826 825 825 825 825 825 825 824 824 823 823 823 823 822 822 821 821 820 820 819 819 819 819 818 818 817 817 816 815 813 811 810 809 807 806 806 805 805 806 805 805 804 804 803 803 803 804 804 804 804 805 806 807 807 809 811 814 815 816 817 819 822 824 826 827 829 831 833 834 835 836 836 836 837 838 838 838 838
828 828 828 828 828 828 828 827 827 827 826 826 826 826 826 826 826 825 825 825 824 824 823 823 822 821 821 820 820 820 820 819 818 818 817 816 814 811 810 809 808 807 806 805 805 806 806 806 805 805 805 805 806 806 807 807 807 808 809 810 811 812 814 816 818 819 821 822 825 826 827 828 830 832 833 835 835 836 836 837 837 838 838 839 838
829 829 829 829 829 829 829 828 828 828 827 827 827 827 827 827 827 827 827 826 826 825 825 824 824 823 823 822 821 821 821 820 819 819 818 816 815 813 811 810 809 808 807 806 806 806 807 807 808 808 807 807 808 808 809 809 810 811 812 813 814 815 817 818 820 822 823 825 827 828 829 830 831 832 834 835 835 836 836 836 837 838 838 839 839
830 830 830 830 830 829 829 829 829 828 828 828 828 827 827 827 827 827 827 827 827 826 826 825 825 824 824 823 823 822 822 821 820 819 818 817 815 814 813 812 811 810 809 808 808 808 808 808 809 809 809 809 809 810 811 812 813 813 814 815 816 818 819 820 821 823 825 827 829 830 831 832 832 833 834 835 835 835 836 836 837 838 838 839 839
831 831 830 830 830 830 829 829 829 828 828 828 828 828 827 827 827 828 828 828 828 827 827 826 826 825 825 824 824 823 823 822 821 820 819 817 817 816 815 814 813 812 812 811 811 811 810 809 809 810 811 812 812 813 814 815 815 816 816 817 819 820 822 823 823 825 826 828 830 831 832 833 834 835 835 835 835 836 836 837 837 838 838 839 839
832 831 831 830 830 830 830 829 829 828 828 828 828 828 827 827 827 827 828 828 828 828 828 827 827 827 826 825 825 824 824 823 822 821 820 819 818 818 817 816 816 816 816 816 816 816 814 813 812 812 813 814 815 816 817 818 818 819 819 820 821 823 824 825 826 827 828 829 830 832 833 835 836 836 835 835 836 836 837 837 837 837 838 838 838
832 832 831 831 830 830 829 829 828 828 828 827 827 827 827 827 827 827 827 828 828 828 829 828 828 828 827 827 826 826 825 825 824 823 822 821 820 819 819 819 820 820 820 820 820 820 819 818 817 816 816 816 817 818 819 820 821 821 822 823 824 825 826 827 828 828 829 829 831 832 834 835 836 836 836 836 836 836 837 837 837 836 837 837 836
831 831 831 831 831 830 829 829 828 828 828 827 827 827 827 827 827 827 827 827 827 828 828 828 829 829 828 828 828 827 826 826 826 825 824 823 822 822 822 822 822 823 823 823 823 823 823 822 822 821 821 820 820 820 821 821 822 823 824 825 826 827 828 829 829 830 829 830 831 833 834 835 835 836 836 836 836 836 836 836 836 835 835 835 835
830 830 830 830 830 830 829 829 828 828 828 827 827 827 827 826 826 826 826 826 827 827 828 828 828 829 829 829 828 828 828 827 827 827 826 826 825 825 825 825 825 825 825 826 826 825 825 825 825 824 824 824 824 823 823 823 823 824 825 826 827 828 829 830 831 831 831 831 832 833 833 834 834 835 836 836 836 836 836 835 835 835 835 835 834
829 829 828 828 829 829 829 828 828 828 827 827 827 827 826 826 826 826 826 826 826 827 827 828 828 828 828 829 829 828 829 828 828 828 828 828 828 827 827 827 828 828 828 828 828 828 828 828 828 828 827 827 827 826 826 826 826 827 828 828 829 830 830 831 832 832 833 833 833 834 834 834 834 834 834 835 835 835 835 835 835 834 834 834 834
828 827 827 827 827 827 827 827 827 827 827 827 827 826 826 826 826 826 826 826 826 827 827 827 828 828 828 828 828 829 829 829 829 830 829 829 830 829 829 830 830 830 830 830 830 830 830 830 830 830 830 830 830 830 830 830 830 830 830 830 831 831 832 832 833 833 834 834 834 834 834 834 833 833 833 833 834 834 834 835 834 834 834 834 834
827 826 826 826 826 826 826 826 826 826 826 826 826 826 826 826 826 826 826 826 826 827 827 827 827 828 828 828 828 829 829 830 830 830 830 831 831 831 831 831 831 831 832 832 831 831 831 831 831 832 832 832 832 832 832 832 832 832 832 832 832 833 834 834 834 834 835 835 835 834 834 834 833 832 832 833 833 834 834 835 835 834 834 834 833
826 825 825 825 824 824 824 824 824 825 825 825 825 825 825 825 825 825 826 826 826 827 827 827 827 827 828 828 828 829 830 830 831 831 831 832 832 832 833 833 833 833 833 833 832 833 833 833 833 833 833 833 833 833 833 834 834 834 834 834 834 834 835 835 835 835 835 835 835 834 833 833 832 832 832 833 834 834 835 835 835 835 834 834 833
825 825 824 824 823 823 822 822 823 823 823 823 824 824 824 824 824 824 825 825 825 826 826 827 827 827 828 828 829 830 830 831 831 832 832 832 833 833 833 834 834 834 834 834 833 834 834 834 834 834 834 834 834 834 834 835 835 835 835 835 835 835 835 835 835 834 834 834 834 833 833 833 832 832 833 833 834 834 835 836 836 835 834 833 832
824 824 823 823 822 822 821 821 821 821 821 822 822 822 822 823 823 823 824 824 825 825 826 826 827 828 828 829 830 830 831 831 832 832 833 833 833 834 834 834 835 835 835 835 835 835 835 835 834 834 834 835 835 835 835 835 835 835 836 835 835 835 835 835 834 834 833 833 833 833 833 833 833 833 834 834 834 835 835 836 836 835 834 833 832
823 822 822 822 821 821 820 820 820 819 820 820 820 820 820 821 821 822 823 823 824 825 825 826 827 827 828 829 830 830 831 831 832 832 833 833 834 834 834 835 835 835 836 836 836 836 835 835 835 835 835 835 835 835 836 836 836 836 836 836 836 835 835 835 834 834 834 833 833 833 833 833 833 834 834 834 835 835 835 835 835 834 833 833 832
821 820 820 820 820 819 819 819 818 818 818 818 818 818 818 819 819 821 821 822 823 824 824 825 826 826 827 828 829 830 831 832 832 832 833 833 834 834 835 835 835 835 836 836 836 836 836 836 836 835 835 835 835 836 836 836 836 837 836 836 836 836 836 836 835 835 834 834 833 833 833 834 834 834 834 835 835 835 835 835 834 833 833 832 832
819 819 819 818 818 818 817 817 817 817 817 816 817 817 817 818 818 819 820 821 822 823 823 824 825 825 826 827 828 829 831 832 832 832 833 833 834 834 834 835 835 835 836 836 836 836 836 836 836 836 836 836 836 836 836 836 837 837 837 837 837 837 836 836 836 836 835 834 834 834 834 834 834 835 835 835 835 835 834 834 833 833 832 832 831
818 817 817 817 817 816 816 815 815 815 815 815 815 816 816 817 818 818 819 820 821 822 823 824 825 825 826 826 827 829 830 831 832 832 833 833 834 834 834 835 835 835 835 836 836 836 836 836 835 836 836 836 836 837 837 837 837 837 837 838 838 837 837 837 837 836 836 835 835 835 835 835 835 835 835 835 835 834 834 834 833 832 832 831 831
817 817 816 816 815 815 814 814 814 814 813 813 814 814 814 815 816 816 818 819 819 820 821 823 824 825 825 826 827 829 830 830 831 832 832 833 833 834 834 835 835 835 835 835 835 835 836 835 835 835 836 836 837 837 837 838 838 838 838 838 838 838 838 837 837 836 836 836 836 836 836 836 836 835 835 835 834 834 833 833 832 832 831 831 830
817 816 816 816 815 815 814 814 813 813 813 813 812 813 813 814 814 815 816 817 818 819 820 821 823 824 825 825 826 828 829 829 830 831 831 832 833 834 834 834 835 835 835 835 835 835 835 835 835 836 836 837 838 838 838 838 838 838 839 839 839 839 838 838 837 837 836 836 836 837 836 836 835 835 835 834 834 833 833 833 832 832 831 830 830